Time,TemperatureF,DewpointF,PressureIn,WindDirection,WindDirectionDegrees,WindSpeedMPH,WindSpeedGustMPH,Humidity,HourlyPrecipIn,Conditions,Clouds,dailyrainin,SoftwareType,DateUTC
2013-10-28 00:00:00,58.6,49.6,30.12,North,5,2.0,4.0,72,0.00,,---,0.00,VWS V14.01,2013-10-28 04:00:00,
2013-10-28 00:01:00,58.4,49.4,30.12,North,5,3.0,3.0,72,0.00,,---,0.00,VWS V14.01,2013-10-28 04:01:00,
2013-10-28 00:02:00,58.2,49.6,30.12,North,5,2.0,3.0,73,0.00,,---,0.00,VWS V14.01,2013-10-28 04:02:00,
2013-10-28 00:05:00,57.9,49.7,30.12,North,5,0.0,3.0,74,0.00,,---,0.00,VWS V14.01,2013-10-28 04:05:00,
2013-10-28 00:07:00,57.6,49.4,30.12,North,5,0.0,0.0,74,0.00,,---,0.00,VWS V14.01,2013-10-28 04:07:00,
2013-10-28 00:10:00,56.9,49.1,30.12,North,5,0.0,0.0,75,0.00,,---,0.00,VWS V14.01,2013-10-28 04:10:00,
2013-10-28 00:12:00,56.6,48.8,30.12,North,5,0.0,0.0,75,0.00,,---,0.00,VWS V14.01,2013-10-28 04:12:00,
2013-10-28 00:15:00,56.0,48.5,30.12,North,11,0.0,0.0,76,0.00,,---,0.00,VWS V14.01,2013-10-28 04:15:00,
2013-10-28 00:17:00,55.8,48.4,30.12,North,11,0.0,0.0,76,0.00,,---,0.00,VWS V14.01,2013-10-28 04:17:00,
2013-10-28 00:20:00,56.0,49.2,30.12,North,11,0.0,0.0,78,0.00,,---,0.00,VWS V14.01,2013-10-28 04:20:00,
2013-10-28 00:22:00,56.4,49.6,30.12,North,11,0.0,0.0,78,0.00,,---,0.00,VWS V14.01,2013-10-28 04:22:00,
2013-10-28 00:27:00,57.2,50.1,30.12,North,11,0.0,0.0,77,0.00,,---,0.00,VWS V14.01,2013-10-28 04:27:00,
2013-10-28 00:30:00,57.6,50.1,30.12,North,11,0.0,0.0,76,0.00,,---,0.00,VWS V14.01,2013-10-28 04:30:00,
2013-10-28 00:32:00,57.8,50.3,30.12,North,11,0.0,0.0,76,0.00,,---,0.00,VWS V14.01,2013-10-28 04:32:00,
2013-10-28 00:35:00,58.1,50.2,30.12,North,11,0.0,0.0,75,0.00,,---,0.00,VWS V14.01,2013-10-28 04:35:00,
2013-10-28 00:37:00,58.2,50.3,30.12,North,11,0.0,0.0,75,0.00,,---,0.00,VWS V14.01,2013-10-28 04:37:00,
2013-10-28 00:40:00,58.4,50.2,30.12,North,11,0.0,0.0,74,0.00,,---,0.00,VWS V14.01,2013-10-28 04:40:00,
2013-10-28 00:42:00,58.5,50.2,30.12,North,11,0.0,0.0,74,0.00,,---,0.00,VWS V14.01,2013-10-28 04:42:00,
2013-10-28 00:45:00,58.7,50.1,30.13,North,11,0.0,0.0,73,0.00,,---,0.00,VWS V14.01,2013-10-28 04:45:00,
2013-10-28 00:47:00,58.9,50.3,30.13,North,11,0.0,0.0,73,0.00,,---,0.00,VWS V14.01,2013-10-28 04:47:00,
2013-10-28 00:50:00,59.1,50.1,30.13,NNE,12,0.0,1.0,72,0.00,,---,0.00,VWS V14.01,2013-10-28 04:50:00,
2013-10-28 00:52:00,59.1,50.1,30.12,NNE,16,0.0,0.0,72,0.00,,---,0.00,VWS V14.01,2013-10-28 04:52:00,
2013-10-28 00:55:00,59.4,50.4,30.12,NNE,19,0.0,0.0,72,0.00,,---,0.00,VWS V14.01,2013-10-28 04:55:00,
2013-10-28 00:57:00,59.5,50.1,30.12,NNE,19,0.0,0.0,71,0.00,,---,0.00,VWS V14.01,2013-10-28 04:57:00,
2013-10-28 01:00:00,59.7,50.3,30.12,NNE,19,0.0,0.0,71,0.00,,---,0.00,VWS V14.01,2013-10-28 05:00:00,
2013-10-28 01:01:00,59.7,49.9,30.13,NNE,19,0.0,0.0,70,0.00,,---,0.00,VWS V14.01,2013-10-28 05:01:00,
2013-10-28 01:05:00,59.7,49.9,30.13,NNE,21,0.0,0.0,70,0.00,,---,0.00,VWS V14.01,2013-10-28 05:05:00,
2013-10-28 01:06:00,59.7,49.9,30.13,NNE,21,0.0,0.0,70,0.00,,---,0.00,VWS V14.01,2013-10-28 05:06:00,
2013-10-28 01:10:00,59.8,50.0,30.13,NNE,21,0.0,0.0,70,0.00,,---,0.00,VWS V14.01,2013-10-28 05:10:00,
2013-10-28 01:11:00,59.8,50.0,30.13,NNE,21,0.0,0.0,70,0.00,,---,0.00,VWS V14.01,2013-10-28 05:11:00,
2013-10-28 01:15:00,60.0,49.8,30.13,NNE,21,0.0,0.0,69,0.00,,---,0.00,VWS V14.01,2013-10-28 05:15:00,
2013-10-28 01:16:00,60.1,49.9,30.13,NNE,21,0.0,0.0,69,0.00,,---,0.00,VWS V14.01,2013-10-28 05:16:00,
2013-10-28 01:20:00,60.3,50.1,30.12,NNE,21,0.0,0.0,69,0.00,,---,0.00,VWS V14.01,2013-10-28 05:20:00,
2013-10-28 01:21:00,60.3,50.1,30.12,NNE,21,0.0,0.0,69,0.00,,---,0.00,VWS V14.01,2013-10-28 05:21:00,
2013-10-28 01:25:00,60.4,50.2,30.12,NNE,25,0.0,0.0,69,0.00,,---,0.00,VWS V14.01,2013-10-28 05:25:00,
2013-10-28 01:26:00,60.5,50.3,30.12,NNE,30,0.0,2.0,69,0.00,,---,0.00,VWS V14.01,2013-10-28 05:26:00,
2013-10-28 01:30:00,60.6,50.4,30.12,NNE,30,0.0,2.0,69,0.00,,---,0.00,VWS V14.01,2013-10-28 05:30:00,
2013-10-28 01:31:00,60.6,50.4,30.12,NNE,30,0.0,1.0,69,0.00,,---,0.00,VWS V14.01,2013-10-28 05:31:00,
2013-10-28 01:35:00,60.4,50.2,30.12,NNE,32,2.0,2.0,69,0.00,,---,0.00,VWS V14.01,2013-10-28 05:35:00,
2013-10-28 01:36:00,60.2,50.0,30.12,NE,40,3.0,4.0,69,0.00,,---,0.00,VWS V14.01,2013-10-28 05:36:00,
2013-10-28 01:40:00,59.9,50.1,30.12,NE,40,4.0,4.0,70,0.00,,---,0.00,VWS V14.01,2013-10-28 05:40:00,
2013-10-28 01:41:00,59.9,50.1,30.12,NE,40,3.0,4.0,70,0.00,,---,0.00,VWS V14.01,2013-10-28 05:41:00,
2013-10-28 01:45:00,59.9,50.5,30.12,NE,40,0.0,4.0,71,0.00,,---,0.00,VWS V14.01,2013-10-28 05:45:00,
2013-10-28 01:46:00,60.0,50.6,30.13,NE,40,0.0,0.0,71,0.00,,---,0.00,VWS V14.01,2013-10-28 05:46:00,
2013-10-28 01:50:00,60.4,51.0,30.13,NE,40,0.0,0.0,71,0.00,,---,0.00,VWS V14.01,2013-10-28 05:50:00,
2013-10-28 01:51:00,60.4,51.0,30.13,NE,40,0.0,0.0,71,0.00,,---,0.00,VWS V14.01,2013-10-28 05:51:00,
2013-10-28 01:55:00,60.5,50.7,30.13,NE,42,1.0,1.0,70,0.00,,---,0.00,VWS V14.01,2013-10-28 05:55:00,
2013-10-28 01:56:00,60.5,50.7,30.13,NE,42,3.0,4.0,70,0.00,,---,0.00,VWS V14.01,2013-10-28 05:56:00,
2013-10-28 02:00:00,59.3,49.1,30.13,NE,43,5.0,5.0,69,0.00,,---,0.00,VWS V14.01,2013-10-28 06:00:00,
2013-10-28 02:01:00,58.6,48.9,30.13,NE,44,5.0,5.0,70,0.00,,---,0.00,VWS V14.01,2013-10-28 06:01:00,
2013-10-28 02:05:00,58.2,50.0,30.12,NE,44,3.0,5.0,74,0.00,,---,0.00,VWS V14.01,2013-10-28 06:05:00,
2013-10-28 02:06:00,58.6,50.3,30.13,NE,44,0.0,3.0,74,0.00,,---,0.00,VWS V14.01,2013-10-28 06:06:00,
2013-10-28 02:10:00,59.1,50.1,30.13,NE,44,5.0,5.0,72,0.00,,---,0.00,VWS V14.01,2013-10-28 06:10:00,
2013-10-28 02:11:00,58.9,49.5,30.12,NE,44,4.0,5.0,71,0.00,,---,0.00,VWS V14.01,2013-10-28 06:11:00,
2013-10-28 02:15:00,58.3,49.3,30.12,NE,45,4.0,5.0,72,0.00,,---,0.00,VWS V14.01,2013-10-28 06:15:00,
2013-10-28 02:16:00,58.2,49.2,30.12,NE,45,4.0,5.0,72,0.00,,---,0.00,VWS V14.01,2013-10-28 06:16:00,
2013-10-28 02:20:00,57.8,49.2,30.12,NE,46,4.0,5.0,73,0.00,,---,0.00,VWS V14.01,2013-10-28 06:20:00,
2013-10-28 02:21:00,57.7,49.5,30.12,NE,46,5.0,5.0,74,0.00,,---,0.00,VWS V14.01,2013-10-28 06:21:00,
2013-10-28 02:25:00,57.8,49.9,30.13,NE,46,4.0,5.0,75,0.00,,---,0.00,VWS V14.01,2013-10-28 06:25:00,
2013-10-28 02:26:00,57.9,50.0,30.12,NE,46,5.0,5.0,75,0.00,,---,0.00,VWS V14.01,2013-10-28 06:26:00,
2013-10-28 02:30:00,57.8,49.9,30.12,NE,46,5.0,6.0,75,0.00,,---,0.00,VWS V14.01,2013-10-28 06:30:00,
2013-10-28 02:31:00,57.6,49.8,30.12,NE,46,5.0,5.0,75,0.00,,---,0.00,VWS V14.01,2013-10-28 06:31:00,
2013-10-28 02:35:00,57.5,50.0,30.12,NE,46,5.0,6.0,76,0.00,,---,0.00,VWS V14.01,2013-10-28 06:35:00,
2013-10-28 02:36:00,57.6,50.1,30.12,NE,46,4.0,5.0,76,0.00,,---,0.00,VWS V14.01,2013-10-28 06:36:00,
2013-10-28 02:40:00,57.7,50.2,30.12,NE,43,6.0,6.0,76,0.00,,---,0.00,VWS V14.01,2013-10-28 06:40:00,
2013-10-28 02:41:00,57.7,50.2,30.12,NE,39,6.0,6.0,76,0.00,,---,0.00,VWS V14.01,2013-10-28 06:41:00,
2013-10-28 02:45:00,57.3,50.2,30.12,NNE,25,5.0,6.0,77,0.00,,---,0.00,VWS V14.01,2013-10-28 06:45:00,
2013-10-28 02:46:00,57.0,49.9,30.12,NNE,22,5.0,6.0,77,0.00,,---,0.00,VWS V14.01,2013-10-28 06:46:00,
2013-10-28 02:50:00,56.0,49.2,30.12,North,10,4.0,6.0,78,0.00,,---,0.00,VWS V14.01,2013-10-28 06:50:00,
2013-10-28 02:51:00,55.7,49.0,30.13,North,10,4.0,5.0,78,0.00,,---,0.00,VWS V14.01,2013-10-28 06:51:00,
2013-10-28 02:55:00,55.1,48.7,30.13,North,5,6.0,6.0,79,0.00,,---,0.00,VWS V14.01,2013-10-28 06:55:00,
2013-10-28 02:56:00,54.7,48.7,30.13,North,360,6.0,6.0,80,0.00,,---,0.00,VWS V14.01,2013-10-28 06:56:00,
2013-10-28 03:00:00,54.0,48.0,30.13,North,360,6.0,6.0,80,0.00,,---,0.00,VWS V14.01,2013-10-28 07:00:00,
2013-10-28 03:01:00,54.0,48.3,30.13,North,349,6.0,6.0,81,0.00,,---,0.00,VWS V14.01,2013-10-28 07:01:00,
2013-10-28 03:05:00,53.9,48.2,30.13,North,355,6.0,7.0,81,0.00,,---,0.00,VWS V14.01,2013-10-28 07:05:00,
2013-10-28 03:06:00,53.9,48.2,30.13,North,355,6.0,7.0,81,0.00,,---,0.00,VWS V14.01,2013-10-28 07:06:00,
2013-10-28 03:10:00,53.8,48.4,30.13,North,355,5.0,7.0,82,0.00,,---,0.00,VWS V14.01,2013-10-28 07:10:00,
2013-10-28 03:11:00,53.8,48.4,30.13,North,355,5.0,6.0,82,0.00,,---,0.00,VWS V14.01,2013-10-28 07:11:00,
2013-10-28 03:15:00,53.8,48.4,30.13,North,355,5.0,6.0,82,0.00,,---,0.00,VWS V14.01,2013-10-28 07:15:00,
2013-10-28 03:16:00,53.7,48.3,30.13,North,355,4.0,6.0,82,0.00,,---,0.00,VWS V14.01,2013-10-28 07:16:00,
2013-10-28 03:20:00,53.3,48.3,30.13,North,360,5.0,6.0,83,0.00,,---,0.00,VWS V14.01,2013-10-28 07:20:00,
2013-10-28 03:21:00,53.2,48.2,30.13,North,360,5.0,6.0,83,0.00,,---,0.00,VWS V14.01,2013-10-28 07:21:00,
2013-10-28 03:25:00,53.0,48.3,30.13,North,360,3.0,6.0,84,0.00,,---,0.00,VWS V14.01,2013-10-28 07:25:00,
2013-10-28 03:26:00,53.0,48.3,30.13,North,355,5.0,5.0,84,0.00,,---,0.00,VWS V14.01,2013-10-28 07:26:00,
2013-10-28 03:30:00,52.9,48.2,30.13,North,355,6.0,6.0,84,0.00,,---,0.00,VWS V14.01,2013-10-28 07:30:00,
2013-10-28 03:31:00,52.9,48.2,30.13,North,355,6.0,6.0,84,0.00,,---,0.00,VWS V14.01,2013-10-28 07:31:00,
2013-10-28 03:35:00,52.9,48.5,30.13,North,5,4.0,6.0,85,0.00,,---,0.00,VWS V14.01,2013-10-28 07:35:00,
2013-10-28 03:36:00,52.9,48.5,30.13,North,5,4.0,5.0,85,0.00,,---,0.00,VWS V14.01,2013-10-28 07:36:00,
2013-10-28 03:40:00,52.9,48.5,30.12,NNE,14,6.0,6.0,85,0.00,,---,0.00,VWS V14.01,2013-10-28 07:40:00,
2013-10-28 03:41:00,52.9,48.5,30.12,North,11,4.0,6.0,85,0.00,,---,0.00,VWS V14.01,2013-10-28 07:41:00,
2013-10-28 03:45:00,53.0,48.6,30.12,North,9,4.0,6.0,85,0.00,,---,0.00,VWS V14.01,2013-10-28 07:45:00,
2013-10-28 03:46:00,53.0,48.6,30.12,NNE,16,4.0,6.0,85,0.00,,---,0.00,VWS V14.01,2013-10-28 07:46:00,
2013-10-28 03:50:00,53.2,48.8,30.12,NNE,15,6.0,6.0,85,0.00,,---,0.00,VWS V14.01,2013-10-28 07:50:00,
2013-10-28 03:51:00,53.1,48.7,30.12,NNE,20,4.0,6.0,85,0.00,,---,0.00,VWS V14.01,2013-10-28 07:51:00,
2013-10-28 03:55:00,53.0,48.6,30.12,NNE,16,5.0,6.0,85,0.00,,---,0.00,VWS V14.01,2013-10-28 07:55:00,
2013-10-28 03:56:00,53.0,48.6,30.12,NNE,17,6.0,6.0,85,0.00,,---,0.00,VWS V14.01,2013-10-28 07:56:00,
2013-10-28 04:00:00,53.0,48.9,30.12,NNE,17,6.0,6.0,86,0.00,,---,0.00,VWS V14.01,2013-10-28 08:00:00,
2013-10-28 04:01:00,53.0,48.9,30.12,NNE,13,4.0,7.0,86,0.00,,---,0.00,VWS V14.01,2013-10-28 08:01:00,
2013-10-28 04:05:00,53.0,48.9,30.12,NNE,20,5.0,7.0,86,0.00,,---,0.00,VWS V14.01,2013-10-28 08:05:00,
2013-10-28 04:06:00,53.0,48.9,30.13,NNE,17,5.0,6.0,86,0.00,,---,0.00,VWS V14.01,2013-10-28 08:06:00,
2013-10-28 04:10:00,53.0,48.9,30.13,NNE,14,5.0,6.0,86,0.00,,---,0.00,VWS V14.01,2013-10-28 08:10:00,
2013-10-28 04:11:00,53.0,48.9,30.13,NNE,13,5.0,6.0,86,0.00,,---,0.00,VWS V14.01,2013-10-28 08:11:00,
2013-10-28 04:15:00,53.2,49.1,30.13,North,11,5.0,6.0,86,0.00,,---,0.00,VWS V14.01,2013-10-28 08:15:00,
2013-10-28 04:16:00,53.3,48.9,30.13,NNE,14,5.0,6.0,85,0.00,,---,0.00,VWS V14.01,2013-10-28 08:16:00,
2013-10-28 04:20:00,53.5,49.1,30.13,NNE,14,4.0,6.0,85,0.00,,---,0.00,VWS V14.01,2013-10-28 08:20:00,
2013-10-28 04:21:00,53.6,49.2,30.13,NNE,13,5.0,6.0,85,0.00,,---,0.00,VWS V14.01,2013-10-28 08:21:00,
2013-10-28 04:25:00,53.8,49.4,30.13,North,11,5.0,6.0,85,0.00,,---,0.00,VWS V14.01,2013-10-28 08:25:00,
2013-10-28 04:26:00,53.9,49.5,30.13,North,11,5.0,6.0,85,0.00,,---,0.00,VWS V14.01,2013-10-28 08:26:00,
2013-10-28 04:30:00,54.0,49.6,30.13,NNE,12,6.0,6.0,85,0.00,,---,0.00,VWS V14.01,2013-10-28 08:30:00,
2013-10-28 04:31:00,54.0,49.6,30.13,NNE,14,6.0,6.0,85,0.00,,---,0.00,VWS V14.01,2013-10-28 08:31:00,
2013-10-28 04:35:00,53.9,49.5,30.13,NNE,14,4.0,6.0,85,0.00,,---,0.00,VWS V14.01,2013-10-28 08:35:00,
2013-10-28 04:36:00,53.9,49.5,30.13,NNE,15,5.0,6.0,85,0.00,,---,0.00,VWS V14.01,2013-10-28 08:36:00,
2013-10-28 04:40:00,53.8,49.4,30.13,NNE,19,7.0,7.0,85,0.00,,---,0.00,VWS V14.01,2013-10-28 08:40:00,
2013-10-28 04:41:00,53.7,49.3,30.13,NNE,19,7.0,7.0,85,0.00,,---,0.00,VWS V14.01,2013-10-28 08:41:00,
2013-10-28 04:45:00,53.5,49.1,30.13,NNE,20,6.0,7.0,85,0.00,,---,0.00,VWS V14.01,2013-10-28 08:45:00,
2013-10-28 04:46:00,53.5,49.1,30.13,NNE,20,6.0,7.0,85,0.00,,---,0.00,VWS V14.01,2013-10-28 08:46:00,
2013-10-28 04:50:00,53.5,49.1,30.13,NNE,19,7.0,7.0,85,0.00,,---,0.00,VWS V14.01,2013-10-28 08:50:00,
2013-10-28 04:51:00,53.6,49.5,30.13,NNE,20,6.0,7.0,86,0.00,,---,0.00,VWS V14.01,2013-10-28 08:51:00,
2013-10-28 04:55:00,53.6,49.2,30.13,NNE,20,5.0,7.0,85,0.00,,---,0.00,VWS V14.01,2013-10-28 08:55:00,
2013-10-28 04:56:00,53.6,49.2,30.13,NNE,22,6.0,7.0,85,0.00,,---,0.00,VWS V14.01,2013-10-28 08:56:00,
2013-10-28 05:00:00,53.5,49.1,30.13,NNE,17,7.0,7.0,85,0.00,,---,0.00,VWS V14.01,2013-10-28 09:00:00,
2013-10-28 05:01:00,53.5,49.1,30.13,NNE,19,5.0,7.0,85,0.00,,---,0.00,VWS V14.01,2013-10-28 09:01:00,
2013-10-28 05:05:00,53.6,49.2,30.13,NNE,19,6.0,7.0,85,0.00,,---,0.00,VWS V14.01,2013-10-28 09:05:00,
2013-10-28 05:06:00,53.6,49.2,30.13,NNE,21,7.0,7.0,85,0.00,,---,0.00,VWS V14.01,2013-10-28 09:06:00,
2013-10-28 05:10:00,53.7,49.3,30.13,NNE,20,6.0,7.0,85,0.00,,---,0.00,VWS V14.01,2013-10-28 09:10:00,
2013-10-28 05:11:00,53.7,49.3,30.13,NNE,15,5.0,7.0,85,0.00,,---,0.00,VWS V14.01,2013-10-28 09:11:00,
2013-10-28 05:15:00,53.7,49.3,30.14,NNE,20,6.0,7.0,85,0.00,,---,0.00,VWS V14.01,2013-10-28 09:15:00,
2013-10-28 05:16:00,53.7,49.3,30.14,NNE,24,6.0,7.0,85,0.00,,---,0.00,VWS V14.01,2013-10-28 09:16:00,
2013-10-28 05:20:00,53.7,49.3,30.14,NNE,17,5.0,7.0,85,0.00,,---,0.00,VWS V14.01,2013-10-28 09:20:00,
2013-10-28 05:21:00,53.6,49.2,30.14,NNE,18,5.0,6.0,85,0.00,,---,0.00,VWS V14.01,2013-10-28 09:21:00,
2013-10-28 05:25:00,53.7,49.3,30.14,NNE,20,5.0,6.0,85,0.00,,---,0.00,VWS V14.01,2013-10-28 09:25:00,
2013-10-28 05:26:00,53.8,49.4,30.14,NNE,20,6.0,6.0,85,0.00,,---,0.00,VWS V14.01,2013-10-28 09:26:00,
2013-10-28 05:30:00,54.0,49.6,30.14,NNE,20,6.0,7.0,85,0.00,,---,0.00,VWS V14.01,2013-10-28 09:30:00,
2013-10-28 05:31:00,54.0,49.3,30.14,NNE,18,5.0,7.0,84,0.00,,---,0.00,VWS V14.01,2013-10-28 09:31:00,
2013-10-28 05:35:00,54.2,49.5,30.15,NNE,19,6.0,7.0,84,0.00,,---,0.00,VWS V14.01,2013-10-28 09:35:00,
2013-10-28 05:36:00,54.3,49.6,30.15,NNE,13,5.0,6.0,84,0.00,,---,0.00,VWS V14.01,2013-10-28 09:36:00,
2013-10-28 05:40:00,54.4,49.7,30.15,NNE,19,6.0,7.0,84,0.00,,---,0.00,VWS V14.01,2013-10-28 09:40:00,
2013-10-28 05:41:00,54.6,49.9,30.15,NNE,20,7.0,7.0,84,0.00,,---,0.00,VWS V14.01,2013-10-28 09:41:00,
2013-10-28 05:45:00,55.2,50.5,30.14,NNE,26,6.0,7.0,84,0.00,,---,0.00,VWS V14.01,2013-10-28 09:45:00,
2013-10-28 05:46:00,55.5,50.4,30.14,NNE,29,7.0,7.0,83,0.00,,---,0.00,VWS V14.01,2013-10-28 09:46:00,
2013-10-28 05:50:00,55.9,50.5,30.14,NE,40,7.0,8.0,82,0.00,,---,0.00,VWS V14.01,2013-10-28 09:50:00,
2013-10-28 05:51:00,55.8,50.4,30.14,NE,39,7.0,8.0,82,0.00,,---,0.00,VWS V14.01,2013-10-28 09:51:00,
2013-10-28 05:55:00,55.5,50.1,30.14,NE,43,7.0,8.0,82,0.00,,---,0.00,VWS V14.01,2013-10-28 09:55:00,
2013-10-28 05:56:00,55.4,50.0,30.14,NE,41,7.0,7.0,82,0.00,,---,0.00,VWS V14.01,2013-10-28 09:56:00,
2013-10-28 06:00:00,55.0,49.6,30.14,NNE,27,6.0,7.0,82,0.00,,---,0.00,VWS V14.01,2013-10-28 10:00:00,
2013-10-28 06:01:00,55.0,49.9,30.15,NNE,28,6.0,6.0,83,0.00,,---,0.00,VWS V14.01,2013-10-28 10:01:00,
2013-10-28 06:05:00,54.9,49.8,30.15,NNE,32,7.0,7.0,83,0.00,,---,0.00,VWS V14.01,2013-10-28 10:05:00,
2013-10-28 06:06:00,55.0,49.9,30.14,NE,34,7.0,7.0,83,0.00,,---,0.00,VWS V14.01,2013-10-28 10:06:00,
2013-10-28 06:10:00,55.2,50.5,30.14,NE,38,7.0,7.0,84,0.00,,---,0.00,VWS V14.01,2013-10-28 10:10:00,
2013-10-28 06:11:00,55.2,50.5,30.14,NE,38,7.0,7.0,84,0.00,,---,0.00,VWS V14.01,2013-10-28 10:11:00,
2013-10-28 06:15:00,55.1,50.0,30.15,NE,47,7.0,7.0,83,0.00,,---,0.00,VWS V14.01,2013-10-28 10:15:00,
2013-10-28 06:16:00,55.1,50.4,30.15,NE,46,6.0,7.0,84,0.00,,---,0.00,VWS V14.01,2013-10-28 10:16:00,
2013-10-28 06:20:00,55.2,50.5,30.15,NE,41,7.0,8.0,84,0.00,,---,0.00,VWS V14.01,2013-10-28 10:20:00,
2013-10-28 06:21:00,55.2,50.5,30.15,NE,34,6.0,7.0,84,0.00,,---,0.00,VWS V14.01,2013-10-28 10:21:00,
2013-10-28 06:25:00,55.0,50.3,30.15,NNE,25,6.0,7.0,84,0.00,,---,0.00,VWS V14.01,2013-10-28 10:25:00,
2013-10-28 06:26:00,55.1,50.4,30.15,NNE,28,6.0,7.0,84,0.00,,---,0.00,VWS V14.01,2013-10-28 10:26:00,
2013-10-28 06:30:00,54.9,50.2,30.15,NNE,24,6.0,7.0,84,0.00,,---,0.00,VWS V14.01,2013-10-28 10:30:00,
2013-10-28 06:31:00,54.8,50.1,30.15,NE,34,7.0,7.0,84,0.00,,---,0.00,VWS V14.01,2013-10-28 10:31:00,
2013-10-28 06:35:00,54.8,50.1,30.15,NE,34,5.0,7.0,84,0.00,,---,0.00,VWS V14.01,2013-10-28 10:35:00,
2013-10-28 06:36:00,54.8,50.1,30.15,NNE,28,6.0,7.0,84,0.00,,---,0.00,VWS V14.01,2013-10-28 10:36:00,
2013-10-28 06:40:00,54.7,50.3,30.15,NNE,29,7.0,7.0,85,0.00,,---,0.00,VWS V14.01,2013-10-28 10:40:00,
2013-10-28 06:41:00,54.7,50.3,30.15,NNE,32,7.0,7.0,85,0.00,,---,0.00,VWS V14.01,2013-10-28 10:41:00,
2013-10-28 06:45:00,54.7,50.3,30.15,NE,34,6.0,7.0,85,0.00,,---,0.00,VWS V14.01,2013-10-28 10:45:00,
2013-10-28 06:46:00,54.8,50.4,30.16,NE,36,6.0,6.0,85,0.00,,---,0.00,VWS V14.01,2013-10-28 10:46:00,
2013-10-28 06:50:00,55.1,50.7,30.15,NE,47,7.0,7.0,85,0.00,,---,0.00,VWS V14.01,2013-10-28 10:50:00,
2013-10-28 06:51:00,55.4,51.0,30.16,NE,46,7.0,7.0,85,0.00,,---,0.00,VWS V14.01,2013-10-28 10:51:00,
2013-10-28 06:55:00,55.8,51.0,30.16,NE,42,7.0,7.0,84,0.00,,---,0.00,VWS V14.01,2013-10-28 10:55:00,
2013-10-28 06:56:00,55.9,51.1,30.16,NE,44,6.0,7.0,84,0.00,,---,0.00,VWS V14.01,2013-10-28 10:56:00,
2013-10-28 07:00:00,56.1,51.3,30.16,NE,49,6.0,7.0,84,0.00,,---,0.00,VWS V14.01,2013-10-28 11:00:00,
2013-10-28 07:01:00,56.2,51.1,30.16,NE,55,5.0,7.0,83,0.00,,---,0.00,VWS V14.01,2013-10-28 11:01:00,
2013-10-28 07:05:00,56.4,51.3,30.16,NE,54,5.0,7.0,83,0.00,,---,0.00,VWS V14.01,2013-10-28 11:05:00,
2013-10-28 07:06:00,56.4,51.3,30.16,ENE,57,5.0,7.0,83,0.00,,---,0.00,VWS V14.01,2013-10-28 11:06:00,
2013-10-28 07:10:00,56.6,51.5,30.16,ENE,63,5.0,7.0,83,0.00,,---,0.00,VWS V14.01,2013-10-28 11:10:00,
2013-10-28 07:11:00,56.8,51.7,30.16,ENE,65,7.0,7.0,83,0.00,,---,0.00,VWS V14.01,2013-10-28 11:11:00,
2013-10-28 07:15:00,57.1,51.7,30.16,ENE,72,7.0,7.0,82,0.00,,---,0.00,VWS V14.01,2013-10-28 11:15:00,
2013-10-28 07:16:00,57.3,52.2,30.16,ENE,78,7.0,7.0,83,0.00,,---,0.00,VWS V14.01,2013-10-28 11:16:00,
2013-10-28 07:20:00,57.5,51.7,30.17,ENE,77,4.0,7.0,81,0.00,,---,0.00,VWS V14.01,2013-10-28 11:20:00,
2013-10-28 07:21:00,57.6,51.8,30.17,ENE,65,4.0,5.0,81,0.00,,---,0.00,VWS V14.01,2013-10-28 11:21:00,
2013-10-28 07:25:00,57.8,52.0,30.17,ENE,69,5.0,5.0,81,0.00,,---,0.00,VWS V14.01,2013-10-28 11:25:00,
2013-10-28 07:26:00,57.8,51.7,30.17,ENE,64,5.0,5.0,80,0.00,,---,0.00,VWS V14.01,2013-10-28 11:26:00,
2013-10-28 07:30:00,57.7,51.6,30.17,ENE,63,7.0,7.0,80,0.00,,---,0.00,VWS V14.01,2013-10-28 11:30:00,
2013-10-28 07:31:00,57.5,51.4,30.17,ENE,66,5.0,7.0,80,0.00,,---,0.00,VWS V14.01,2013-10-28 11:31:00,
2013-10-28 07:35:00,57.4,51.3,30.17,ENE,65,3.0,8.0,80,0.00,,---,0.00,VWS V14.01,2013-10-28 11:35:00,
2013-10-28 07:36:00,57.3,51.2,30.17,ENE,66,4.0,7.0,80,0.00,,---,0.00,VWS V14.01,2013-10-28 11:36:00,
2013-10-28 07:40:00,57.2,51.1,30.17,ENE,59,5.0,7.0,80,0.00,,---,0.00,VWS V14.01,2013-10-28 11:40:00,
2013-10-28 07:41:00,57.1,51.0,30.17,ENE,60,5.0,5.0,80,0.00,,---,0.00,VWS V14.01,2013-10-28 11:41:00,
2013-10-28 07:45:00,56.9,51.1,30.17,ENE,69,4.0,7.0,81,0.00,,---,0.00,VWS V14.01,2013-10-28 11:45:00,
2013-10-28 07:46:00,56.9,51.1,30.17,ENE,68,4.0,5.0,81,0.00,,---,0.00,VWS V14.01,2013-10-28 11:46:00,
2013-10-28 07:50:00,57.0,51.6,30.17,ENE,73,4.0,7.0,82,0.00,,---,0.00,VWS V14.01,2013-10-28 11:50:00,
2013-10-28 07:51:00,57.0,51.6,30.17,ENE,78,5.0,7.0,82,0.00,,---,0.00,VWS V14.01,2013-10-28 11:51:00,
2013-10-28 07:55:00,57.1,51.7,30.17,East,81,3.0,7.0,82,0.00,,---,0.00,VWS V14.01,2013-10-28 11:55:00,
2013-10-28 07:56:00,57.1,51.7,30.17,East,84,5.0,5.0,82,0.00,,---,0.00,VWS V14.01,2013-10-28 11:56:00,
2013-10-28 08:00:00,57.1,51.7,30.17,East,88,3.0,5.0,82,0.00,,---,0.00,VWS V14.01,2013-10-28 12:00:00,
2013-10-28 08:01:00,57.1,51.7,30.18,East,90,5.0,5.0,82,0.00,,---,0.00,VWS V14.01,2013-10-28 12:01:00,
2013-10-28 08:05:00,57.2,51.8,30.18,East,93,3.0,5.0,82,0.00,,---,0.00,VWS V14.01,2013-10-28 12:05:00,
2013-10-28 08:06:00,57.3,52.2,30.18,East,88,5.0,5.0,83,0.00,,---,0.00,VWS V14.01,2013-10-28 12:06:00,
2013-10-28 08:10:00,57.5,52.4,30.17,East,86,5.0,7.0,83,0.00,,---,0.00,VWS V14.01,2013-10-28 12:10:00,
2013-10-28 08:11:00,57.6,52.2,30.18,East,91,3.0,6.0,82,0.00,,---,0.00,VWS V14.01,2013-10-28 12:11:00,
2013-10-28 08:15:00,57.8,52.3,30.18,East,88,2.0,6.0,82,0.00,,---,0.00,VWS V14.01,2013-10-28 12:15:00,
2013-10-28 08:16:00,57.9,52.5,30.18,East,88,3.0,3.0,82,0.00,,---,0.00,VWS V14.01,2013-10-28 12:16:00,
2013-10-28 08:20:00,58.1,52.6,30.18,East,82,5.0,5.0,82,0.00,,---,0.00,VWS V14.01,2013-10-28 12:20:00,
2013-10-28 08:21:00,58.2,52.7,30.18,ENE,71,4.0,5.0,82,0.00,,---,0.00,VWS V14.01,2013-10-28 12:21:00,
2013-10-28 08:25:00,58.3,52.8,30.19,ENE,72,0.0,5.0,82,0.00,,---,0.00,VWS V14.01,2013-10-28 12:25:00,
2013-10-28 08:26:00,58.3,52.8,30.20,ENE,72,0.0,0.0,82,0.00,,---,0.00,VWS V14.01,2013-10-28 12:26:00,
2013-10-28 08:30:00,58.4,52.9,30.20,ENE,72,0.0,0.0,82,0.00,,---,0.00,VWS V14.01,2013-10-28 12:30:00,
2013-10-28 08:31:00,58.4,52.9,30.20,SSE,148,0.0,0.0,82,0.00,,---,0.00,VWS V14.01,2013-10-28 12:31:00,
2013-10-28 08:35:00,58.6,53.1,30.20,WNW,299,0.0,0.0,82,0.00,,---,0.00,VWS V14.01,2013-10-28 12:35:00,
2013-10-28 08:36:00,58.7,53.2,30.20,NNW,337,2.0,2.0,82,0.00,,---,0.00,VWS V14.01,2013-10-28 12:36:00,
2013-10-28 08:40:00,59.0,53.5,30.20,ENE,65,3.0,4.0,82,0.00,,---,0.00,VWS V14.01,2013-10-28 12:40:00,
2013-10-28 08:41:00,59.1,53.6,30.20,ENE,72,4.0,4.0,82,0.00,,---,0.00,VWS V14.01,2013-10-28 12:41:00,
2013-10-28 08:45:00,59.4,53.9,30.19,ENE,57,7.0,7.0,82,0.00,,---,0.00,VWS V14.01,2013-10-28 12:45:00,
2013-10-28 08:46:00,59.4,53.9,30.19,ENE,57,5.0,7.0,82,0.00,,---,0.00,VWS V14.01,2013-10-28 12:46:00,
2013-10-28 08:50:00,59.3,53.5,30.20,NE,54,6.0,7.0,81,0.00,,---,0.00,VWS V14.01,2013-10-28 12:50:00,
2013-10-28 08:51:00,59.2,53.4,30.20,NE,44,6.0,6.0,81,0.00,,---,0.00,VWS V14.01,2013-10-28 12:51:00,
2013-10-28 08:55:00,58.9,53.1,30.20,NNE,30,4.0,6.0,81,0.00,,---,0.00,VWS V14.01,2013-10-28 12:55:00,
2013-10-28 08:56:00,58.8,53.0,30.20,NNE,30,4.0,5.0,81,0.00,,---,0.00,VWS V14.01,2013-10-28 12:56:00,
2013-10-28 09:00:00,58.5,53.0,30.20,ENE,60,5.0,6.0,82,0.00,,---,0.00,VWS V14.01,2013-10-28 13:00:00,
2013-10-28 09:01:00,58.4,52.9,30.20,ENE,59,4.0,5.0,82,0.00,,---,0.00,VWS V14.01,2013-10-28 13:01:00,
2013-10-28 09:05:00,58.5,53.0,30.20,ENE,57,5.0,5.0,82,0.00,,---,0.00,VWS V14.01,2013-10-28 13:05:00,
2013-10-28 09:06:00,58.5,53.0,30.20,ENE,62,3.0,5.0,82,0.00,,---,0.00,VWS V14.01,2013-10-28 13:06:00,
2013-10-28 09:10:00,58.7,53.6,30.20,ENE,63,4.0,7.0,83,0.00,,---,0.00,VWS V14.01,2013-10-28 13:10:00,
2013-10-28 09:11:00,58.9,53.8,30.20,NE,55,4.0,5.0,83,0.00,,---,0.00,VWS V14.01,2013-10-28 13:11:00,
2013-10-28 09:15:00,59.2,53.7,30.20,ENE,71,5.0,5.0,82,0.00,,---,0.00,VWS V14.01,2013-10-28 13:15:00,
2013-10-28 09:16:00,59.3,53.8,30.20,ENE,75,5.0,6.0,82,0.00,,---,0.00,VWS V14.01,2013-10-28 13:16:00,
2013-10-28 09:20:00,59.7,54.2,30.20,ENE,64,4.0,7.0,82,0.00,,---,0.00,VWS V14.01,2013-10-28 13:20:00,
2013-10-28 09:21:00,59.8,54.3,30.20,ENE,74,5.0,5.0,82,0.00,,---,0.00,VWS V14.01,2013-10-28 13:21:00,
2013-10-28 09:25:00,60.1,54.3,30.20,ENE,69,5.0,5.0,81,0.00,,---,0.00,VWS V14.01,2013-10-28 13:25:00,
2013-10-28 09:26:00,60.2,54.4,30.20,ENE,61,3.0,5.0,81,0.00,,---,0.00,VWS V14.01,2013-10-28 13:26:00,
2013-10-28 09:30:00,60.4,54.5,30.20,East,82,5.0,5.0,81,0.00,,---,0.00,VWS V14.01,2013-10-28 13:30:00,
2013-10-28 09:31:00,60.5,54.7,30.21,ENE,78,3.0,5.0,81,0.00,,---,0.00,VWS V14.01,2013-10-28 13:31:00,
2013-10-28 09:35:00,60.8,54.6,30.21,ENE,77,2.0,5.0,80,0.00,,---,0.00,VWS V14.01,2013-10-28 13:35:00,
2013-10-28 09:36:00,60.9,54.7,30.21,ENE,78,2.0,3.0,80,0.00,,---,0.00,VWS V14.01,2013-10-28 13:36:00,
2013-10-28 09:40:00,61.1,54.9,30.21,East,79,1.0,3.0,80,0.00,,---,0.00,VWS V14.01,2013-10-28 13:40:00,
2013-10-28 09:41:00,61.2,55.0,30.21,East,92,0.0,3.0,80,0.00,,---,0.00,VWS V14.01,2013-10-28 13:41:00,
2013-10-28 09:45:00,61.4,55.2,30.21,East,94,1.0,3.0,80,0.00,,---,0.00,VWS V14.01,2013-10-28 13:45:00,
2013-10-28 09:46:00,61.5,54.9,30.22,East,94,1.0,2.0,79,0.00,,---,0.00,VWS V14.01,2013-10-28 13:46:00,
2013-10-28 09:50:00,61.8,55.2,30.21,East,92,0.0,3.0,79,0.00,,---,0.00,VWS V14.01,2013-10-28 13:50:00,
2013-10-28 09:51:00,61.9,55.3,30.21,East,80,2.0,2.0,79,0.00,,---,0.00,VWS V14.01,2013-10-28 13:51:00,
2013-10-28 09:55:00,62.1,55.5,30.22,East,81,0.0,2.0,79,0.00,,---,0.00,VWS V14.01,2013-10-28 13:55:00,
2013-10-28 09:56:00,62.2,55.6,30.22,East,80,0.0,0.0,79,0.00,,---,0.00,VWS V14.01,2013-10-28 13:56:00,
2013-10-28 10:00:00,62.5,55.9,30.22,East,84,0.0,1.0,79,0.00,,---,0.00,VWS V14.01,2013-10-28 14:00:00,
2013-10-28 10:01:00,62.6,56.0,30.22,East,90,0.0,0.0,79,0.00,,---,0.00,VWS V14.01,2013-10-28 14:01:00,
2013-10-28 10:05:00,62.8,55.8,30.21,ESE,105,3.0,3.0,78,0.00,,---,0.00,VWS V14.01,2013-10-28 14:05:00,
2013-10-28 10:06:00,62.8,55.8,30.21,ESE,107,4.0,4.0,78,0.00,,---,0.00,VWS V14.01,2013-10-28 14:06:00,
2013-10-28 10:10:00,62.9,55.9,30.21,ESE,109,3.0,4.0,78,0.00,,---,0.00,VWS V14.01,2013-10-28 14:10:00,
2013-10-28 10:11:00,62.9,55.9,30.21,ESE,110,4.0,4.0,78,0.00,,---,0.00,VWS V14.01,2013-10-28 14:11:00,
2013-10-28 10:15:00,63.1,56.5,30.21,ESE,115,3.0,5.0,79,0.00,,---,0.00,VWS V14.01,2013-10-28 14:15:00,
2013-10-28 10:16:00,63.1,56.5,30.22,ESE,116,3.0,5.0,79,0.00,,---,0.00,VWS V14.01,2013-10-28 14:16:00,
2013-10-28 10:20:00,63.4,57.1,30.22,ESE,118,4.0,5.0,80,0.00,,---,0.00,VWS V14.01,2013-10-28 14:20:00,
2013-10-28 10:21:00,63.5,57.2,30.21,ESE,118,3.0,4.0,80,0.00,,---,0.00,VWS V14.01,2013-10-28 14:21:00,
2013-10-28 10:25:00,63.6,57.3,30.21,ESE,107,4.0,5.0,80,0.00,,---,0.00,VWS V14.01,2013-10-28 14:25:00,
2013-10-28 10:26:00,63.7,57.4,30.21,East,101,5.0,5.0,80,0.00,,---,0.00,VWS V14.01,2013-10-28 14:26:00,
2013-10-28 10:30:00,63.8,57.5,30.21,ESE,102,3.0,5.0,80,0.00,,---,0.00,VWS V14.01,2013-10-28 14:30:00,
2013-10-28 10:31:00,63.8,57.5,30.21,ESE,103,4.0,4.0,80,0.00,,---,0.00,VWS V14.01,2013-10-28 14:31:00,
2013-10-28 10:35:00,64.1,58.2,30.21,ESE,109,3.0,5.0,81,0.00,,---,0.00,VWS V14.01,2013-10-28 14:35:00,
2013-10-28 10:36:00,64.2,58.3,30.22,ESE,118,4.0,5.0,81,0.00,,---,0.00,VWS V14.01,2013-10-28 14:36:00,
2013-10-28 10:40:00,64.4,58.1,30.22,ESE,121,5.0,7.0,80,0.00,,---,0.00,VWS V14.01,2013-10-28 14:40:00,
2013-10-28 10:41:00,64.5,57.8,30.22,ESE,123,5.0,6.0,79,0.00,,---,0.00,VWS V14.01,2013-10-28 14:41:00,
2013-10-28 10:45:00,64.8,57.1,30.22,SE,132,6.0,10.0,76,0.00,,---,0.00,VWS V14.01,2013-10-28 14:45:00,
2013-10-28 10:46:00,64.9,56.8,30.21,SE,129,7.0,9.0,75,0.00,,---,0.00,VWS V14.01,2013-10-28 14:46:00,
2013-10-28 10:50:00,65.1,55.9,30.21,SE,126,8.0,9.0,72,0.00,,---,0.00,VWS V14.01,2013-10-28 14:50:00,
2013-10-28 10:51:00,65.2,55.6,30.21,SE,134,7.0,9.0,71,0.00,,---,0.00,VWS V14.01,2013-10-28 14:51:00,
2013-10-28 10:55:00,65.5,55.9,30.21,SE,136,8.0,9.0,71,0.00,,---,0.00,VWS V14.01,2013-10-28 14:55:00,
2013-10-28 10:56:00,65.5,55.5,30.21,SE,126,7.0,8.0,70,0.00,,---,0.00,VWS V14.01,2013-10-28 14:56:00,
2013-10-28 11:00:00,65.8,55.4,30.21,SE,130,7.0,9.0,69,0.00,,---,0.00,VWS V14.01,2013-10-28 15:00:00,
2013-10-28 11:01:00,65.9,55.5,30.21,SE,130,7.0,8.0,69,0.00,,---,0.00,VWS V14.01,2013-10-28 15:01:00,
2013-10-28 11:05:00,66.1,54.8,30.21,SE,137,9.0,9.0,67,0.00,,---,0.00,VWS V14.01,2013-10-28 15:05:00,
2013-10-28 11:06:00,66.2,54.9,30.21,SE,131,9.0,9.0,67,0.00,,---,0.00,VWS V14.01,2013-10-28 15:06:00,
2013-10-28 11:10:00,66.4,53.9,30.21,SE,136,8.0,10.0,64,0.00,,---,0.00,VWS V14.01,2013-10-28 15:10:00,
2013-10-28 11:11:00,66.4,53.9,30.21,SE,134,8.0,9.0,64,0.00,,---,0.00,VWS V14.01,2013-10-28 15:11:00,
2013-10-28 11:15:00,66.6,53.6,30.21,SE,130,7.0,9.0,63,0.00,,---,0.00,VWS V14.01,2013-10-28 15:15:00,
2013-10-28 11:16:00,66.6,53.2,30.21,SE,134,8.0,8.0,62,0.00,,---,0.00,VWS V14.01,2013-10-28 15:16:00,
2013-10-28 11:20:00,66.7,52.8,30.22,SE,142,7.0,9.0,61,0.00,,---,0.00,VWS V14.01,2013-10-28 15:20:00,
2013-10-28 11:21:00,66.8,52.9,30.22,SE,138,8.0,8.0,61,0.00,,---,0.00,VWS V14.01,2013-10-28 15:21:00,
2013-10-28 11:25:00,66.8,52.5,30.22,SE,131,7.0,8.0,60,0.00,,---,0.00,VWS V14.01,2013-10-28 15:25:00,
2013-10-28 11:26:00,66.9,53.5,30.22,SE,144,7.0,9.0,62,0.00,,---,0.00,VWS V14.01,2013-10-28 15:26:00,
2013-10-28 11:30:00,66.8,52.9,30.22,SE,144,7.0,9.0,61,0.00,,---,0.00,VWS V14.01,2013-10-28 15:30:00,
2013-10-28 11:31:00,66.8,52.5,30.22,SE,145,5.0,7.0,60,0.00,,---,0.00,VWS V14.01,2013-10-28 15:31:00,
2013-10-28 11:35:00,67.0,52.2,30.22,SE,134,7.0,8.0,59,0.00,,---,0.00,VWS V14.01,2013-10-28 15:35:00,
2013-10-28 11:36:00,67.0,51.8,30.22,SE,137,5.0,7.0,58,0.00,,---,0.00,VWS V14.01,2013-10-28 15:36:00,
2013-10-28 11:40:00,67.1,52.3,30.22,SSE,147,4.0,7.0,59,0.00,,---,0.00,VWS V14.01,2013-10-28 15:40:00,
2013-10-28 11:41:00,67.2,51.9,30.22,SE,142,5.0,5.0,58,0.00,,---,0.00,VWS V14.01,2013-10-28 15:41:00,
2013-10-28 11:45:00,67.2,52.9,30.22,SE,145,5.0,6.0,60,0.00,,---,0.00,VWS V14.01,2013-10-28 15:45:00,
2013-10-28 11:46:00,67.1,51.8,30.22,SE,145,4.0,5.0,58,0.00,,---,0.00,VWS V14.01,2013-10-28 15:46:00,
2013-10-28 11:50:00,67.1,52.8,30.23,SSE,151,4.0,5.0,60,0.00,,---,0.00,VWS V14.01,2013-10-28 15:50:00,
2013-10-28 11:51:00,67.1,52.3,30.22,SSE,158,3.0,4.0,59,0.00,,---,0.00,VWS V14.01,2013-10-28 15:51:00,
2013-10-28 11:55:00,67.1,51.8,30.22,SE,144,4.0,5.0,58,0.00,,---,0.00,VWS V14.01,2013-10-28 15:55:00,
2013-10-28 11:56:00,67.0,51.8,30.22,SE,140,3.0,4.0,58,0.00,,---,0.00,VWS V14.01,2013-10-28 15:56:00,
2013-10-28 12:00:00,66.9,51.7,30.22,SE,138,4.0,6.0,58,0.00,,---,0.00,VWS V14.01,2013-10-28 16:00:00,
2013-10-28 12:01:00,67.0,52.2,30.22,SSE,150,4.0,5.0,59,0.00,,---,0.00,VWS V14.01,2013-10-28 16:01:00,
2013-10-28 12:05:00,67.0,51.8,30.22,SE,136,5.0,5.0,58,0.00,,---,0.00,VWS V14.01,2013-10-28 16:05:00,
2013-10-28 12:06:00,67.0,52.2,30.22,SE,133,4.0,5.0,59,0.00,,---,0.00,VWS V14.01,2013-10-28 16:06:00,
2013-10-28 12:10:00,67.1,52.8,30.22,SE,142,4.0,5.0,60,0.00,,---,0.00,VWS V14.01,2013-10-28 16:10:00,
2013-10-28 12:11:00,67.1,52.3,30.22,SE,137,3.0,4.0,59,0.00,,---,0.00,VWS V14.01,2013-10-28 16:11:00,
2013-10-28 12:15:00,67.0,51.8,30.22,SE,131,4.0,4.0,58,0.00,,---,0.00,VWS V14.01,2013-10-28 16:15:00,
2013-10-28 12:16:00,67.0,51.8,30.22,SE,131,3.0,4.0,58,0.00,,---,0.00,VWS V14.01,2013-10-28 16:16:00,
2013-10-28 12:20:00,67.0,52.2,30.22,SE,125,2.0,4.0,59,0.00,,---,0.00,VWS V14.01,2013-10-28 16:20:00,
2013-10-28 12:21:00,67.0,52.2,30.22,SE,127,2.0,3.0,59,0.00,,---,0.00,VWS V14.01,2013-10-28 16:21:00,
2013-10-28 12:25:00,67.0,52.2,30.22,SSE,148,4.0,4.0,59,0.00,,---,0.00,VWS V14.01,2013-10-28 16:25:00,
2013-10-28 12:26:00,67.0,52.2,30.22,SSE,148,3.0,4.0,59,0.00,,---,0.00,VWS V14.01,2013-10-28 16:26:00,
2013-10-28 12:30:00,67.0,52.7,30.22,ESE,115,3.0,4.0,60,0.00,,---,0.00,VWS V14.01,2013-10-28 16:30:00,
2013-10-28 12:31:00,66.9,52.1,30.22,ESE,115,2.0,3.0,59,0.00,,---,0.00,VWS V14.01,2013-10-28 16:31:00,
2013-10-28 12:35:00,66.8,51.6,30.22,SE,132,1.0,4.0,58,0.00,,---,0.00,VWS V14.01,2013-10-28 16:35:00,
2013-10-28 12:36:00,66.8,51.6,30.21,SE,132,2.0,2.0,58,0.00,,---,0.00,VWS V14.01,2013-10-28 16:36:00,
2013-10-28 12:40:00,66.8,51.6,30.21,SE,135,0.0,4.0,58,0.00,,---,0.00,VWS V14.01,2013-10-28 16:40:00,
2013-10-28 12:41:00,66.8,51.6,30.21,SE,133,0.0,0.0,58,0.00,,---,0.00,VWS V14.01,2013-10-28 16:41:00,
2013-10-28 12:45:00,66.8,52.0,30.21,SE,127,2.0,3.0,59,0.00,,---,0.00,VWS V14.01,2013-10-28 16:45:00,
2013-10-28 12:46:00,66.8,51.6,30.21,SE,128,2.0,3.0,58,0.00,,---,0.00,VWS V14.01,2013-10-28 16:46:00,
2013-10-28 12:50:00,66.7,51.5,30.21,SE,127,3.0,4.0,58,0.00,,---,0.00,VWS V14.01,2013-10-28 16:50:00,
2013-10-28 12:51:00,66.7,51.5,30.21,SE,127,3.0,3.0,58,0.00,,---,0.00,VWS V14.01,2013-10-28 16:51:00,
2013-10-28 12:55:00,66.7,51.0,30.21,ESE,122,1.0,4.0,57,0.00,,---,0.00,VWS V14.01,2013-10-28 16:55:00,
2013-10-28 12:56:00,66.7,51.0,30.21,ESE,123,3.0,3.0,57,0.00,,---,0.00,VWS V14.01,2013-10-28 16:56:00,
2013-10-28 13:00:00,66.7,51.9,30.21,SE,129,2.0,3.0,59,0.00,,---,0.00,VWS V14.01,2013-10-28 17:00:00,
2013-10-28 13:01:00,66.7,51.5,30.21,ESE,123,1.0,3.0,58,0.00,,---,0.00,VWS V14.01,2013-10-28 17:01:00,
2013-10-28 13:05:00,66.7,51.0,30.21,ESE,123,2.0,3.0,57,0.00,,---,0.00,VWS V14.01,2013-10-28 17:05:00,
2013-10-28 13:06:00,66.7,51.0,30.21,SE,128,2.0,3.0,57,0.00,,---,0.00,VWS V14.01,2013-10-28 17:06:00,
2013-10-28 13:10:00,66.7,50.5,30.21,SE,132,2.0,3.0,56,0.00,,---,0.00,VWS V14.01,2013-10-28 17:10:00,
2013-10-28 13:11:00,66.7,51.0,30.21,SE,132,1.0,2.0,57,0.00,,---,0.00,VWS V14.01,2013-10-28 17:11:00,
2013-10-28 13:15:00,66.7,51.5,30.20,SE,133,1.0,2.0,58,0.00,,---,0.00,VWS V14.01,2013-10-28 17:15:00,
2013-10-28 13:16:00,66.7,51.5,30.20,SE,133,1.0,2.0,58,0.00,,---,0.00,VWS V14.01,2013-10-28 17:16:00,
2013-10-28 13:20:00,66.7,51.5,30.20,SE,138,2.0,3.0,58,0.00,,---,0.00,VWS V14.01,2013-10-28 17:20:00,
2013-10-28 13:21:00,66.7,51.0,30.20,SE,138,2.0,3.0,57,0.00,,---,0.00,VWS V14.01,2013-10-28 17:21:00,
2013-10-28 13:25:00,66.7,51.0,30.20,SE,139,2.0,3.0,57,0.00,,---,0.00,VWS V14.01,2013-10-28 17:25:00,
2013-10-28 13:26:00,66.6,50.4,30.20,SE,139,1.0,2.0,56,0.00,,---,0.00,VWS V14.01,2013-10-28 17:26:00,
2013-10-28 13:30:00,66.6,50.9,30.20,SE,134,2.0,2.0,57,0.00,,---,0.00,VWS V14.01,2013-10-28 17:30:00,
2013-10-28 13:31:00,66.6,50.4,30.20,SE,134,1.0,2.0,56,0.00,,---,0.00,VWS V14.01,2013-10-28 17:31:00,
2013-10-28 13:35:00,66.6,50.9,30.20,SE,136,1.0,2.0,57,0.00,,---,0.00,VWS V14.01,2013-10-28 17:35:00,
2013-10-28 13:36:00,66.6,51.4,30.20,SE,140,0.0,2.0,58,0.00,,---,0.00,VWS V14.01,2013-10-28 17:36:00,
2013-10-28 13:40:00,66.6,50.9,30.20,SE,139,0.0,2.0,57,0.00,,---,0.00,VWS V14.01,2013-10-28 17:40:00,
2013-10-28 13:41:00,66.6,51.4,30.20,SE,134,0.0,0.0,58,0.00,,---,0.00,VWS V14.01,2013-10-28 17:41:00,
2013-10-28 13:45:00,66.5,51.8,30.20,SE,129,0.0,0.0,59,0.00,,---,0.00,VWS V14.01,2013-10-28 17:45:00,
2013-10-28 13:46:00,66.5,50.8,30.20,SE,128,0.0,0.0,57,0.00,,---,0.00,VWS V14.01,2013-10-28 17:46:00,
2013-10-28 13:50:00,66.5,50.8,30.20,SE,127,0.0,0.0,57,0.00,,---,0.00,VWS V14.01,2013-10-28 17:50:00,
2013-10-28 13:51:00,66.5,51.3,30.20,ESE,123,0.0,0.0,58,0.00,,---,0.00,VWS V14.01,2013-10-28 17:51:00,
2013-10-28 13:55:00,66.5,50.3,30.20,SE,132,0.0,0.0,56,0.00,,---,0.00,VWS V14.01,2013-10-28 17:55:00,
2013-10-28 13:56:00,66.5,50.3,30.20,SE,136,2.0,2.0,56,0.00,,---,0.00,VWS V14.01,2013-10-28 17:56:00,
2013-10-28 14:00:00,66.5,49.8,30.20,SE,136,1.0,3.0,55,0.00,,---,0.00,VWS V14.01,2013-10-28 18:00:00,
2013-10-28 14:01:00,66.5,49.8,30.20,SE,136,2.0,2.0,55,0.00,,---,0.00,VWS V14.01,2013-10-28 18:01:00,
2013-10-28 14:05:00,66.5,50.8,30.19,SE,134,3.0,3.0,57,0.00,,---,0.00,VWS V14.01,2013-10-28 18:05:00,
2013-10-28 14:06:00,66.5,49.8,30.19,SE,135,3.0,3.0,55,0.00,,---,0.00,VWS V14.01,2013-10-28 18:06:00,
2013-10-28 14:10:00,66.5,49.8,30.19,SE,126,2.0,3.0,55,0.00,,---,0.00,VWS V14.01,2013-10-28 18:10:00,
2013-10-28 14:11:00,66.6,50.0,30.19,SE,126,0.0,2.0,55,0.00,,---,0.00,VWS V14.01,2013-10-28 18:11:00,
2013-10-28 14:15:00,66.6,50.0,30.19,SE,124,0.0,2.0,55,0.00,,---,0.00,VWS V14.01,2013-10-28 18:15:00,
2013-10-28 14:16:00,66.6,50.0,30.19,SE,124,0.0,0.0,55,0.00,,---,0.00,VWS V14.01,2013-10-28 18:16:00,
2013-10-28 14:20:00,66.6,50.0,30.19,SE,130,0.0,0.0,55,0.00,,---,0.00,VWS V14.01,2013-10-28 18:20:00,
2013-10-28 14:21:00,66.7,50.5,30.19,SE,130,0.0,0.0,56,0.00,,---,0.00,VWS V14.01,2013-10-28 18:21:00,
2013-10-28 14:25:00,66.7,50.0,30.19,SE,126,0.0,1.0,55,0.00,,---,0.00,VWS V14.01,2013-10-28 18:25:00,
2013-10-28 14:26:00,66.7,50.0,30.19,SE,126,0.0,0.0,55,0.00,,---,0.00,VWS V14.01,2013-10-28 18:26:00,
2013-10-28 14:30:00,66.7,50.5,30.19,SE,133,0.0,1.0,56,0.00,,---,0.00,VWS V14.01,2013-10-28 18:30:00,
2013-10-28 14:31:00,66.7,50.5,30.19,SE,134,0.0,0.0,56,0.00,,---,0.00,VWS V14.01,2013-10-28 18:31:00,
2013-10-28 14:35:00,66.7,50.0,30.19,SE,143,0.0,1.0,55,0.00,,---,0.00,VWS V14.01,2013-10-28 18:35:00,
2013-10-28 14:36:00,66.7,50.0,30.19,SE,143,0.0,0.0,55,0.00,,---,0.00,VWS V14.01,2013-10-28 18:36:00,
2013-10-28 14:40:00,66.8,50.1,30.19,SE,140,0.0,0.0,55,0.00,,---,0.00,VWS V14.01,2013-10-28 18:40:00,
2013-10-28 14:41:00,66.9,50.7,30.19,SE,139,0.0,0.0,56,0.00,,---,0.00,VWS V14.01,2013-10-28 18:41:00,
2013-10-28 14:45:00,67.0,50.3,30.19,SE,132,0.0,0.0,55,0.00,,---,0.00,VWS V14.01,2013-10-28 18:45:00,
2013-10-28 14:46:00,67.0,50.3,30.19,SE,132,0.0,0.0,55,0.00,,---,0.00,VWS V14.01,2013-10-28 18:46:00,
2013-10-28 14:50:00,67.1,50.9,30.19,SE,132,0.0,0.0,56,0.00,,---,0.00,VWS V14.01,2013-10-28 18:50:00,
2013-10-28 14:51:00,67.1,50.9,30.19,SE,130,0.0,0.0,56,0.00,,---,0.00,VWS V14.01,2013-10-28 18:51:00,
2013-10-28 14:55:00,67.2,51.0,30.19,ESE,108,0.0,0.0,56,0.00,,---,0.00,VWS V14.01,2013-10-28 18:55:00,
2013-10-28 14:56:00,67.1,50.9,30.19,ESE,108,0.0,0.0,56,0.00,,---,0.00,VWS V14.01,2013-10-28 18:56:00,
2013-10-28 15:00:00,67.1,50.9,30.19,ESE,112,0.0,2.0,56,0.00,,---,0.00,VWS V14.01,2013-10-28 19:00:00,
2013-10-28 15:01:00,67.1,50.9,30.18,ESE,113,0.0,0.0,56,0.00,,---,0.00,VWS V14.01,2013-10-28 19:01:00,
2013-10-28 15:05:00,66.9,50.7,30.18,ESE,117,1.0,2.0,56,0.00,,---,0.00,VWS V14.01,2013-10-28 19:05:00,
2013-10-28 15:06:00,66.8,49.6,30.18,ESE,117,1.0,2.0,54,0.00,,---,0.00,VWS V14.01,2013-10-28 19:06:00,
2013-10-28 15:10:00,66.8,50.1,30.18,ESE,119,0.0,2.0,55,0.00,,---,0.00,VWS V14.01,2013-10-28 19:10:00,
2013-10-28 15:11:00,66.8,50.1,30.18,ESE,119,1.0,1.0,55,0.00,,---,0.00,VWS V14.01,2013-10-28 19:11:00,
2013-10-28 15:15:00,66.8,48.6,30.18,SE,128,1.0,2.0,52,0.00,,---,0.00,VWS V14.01,2013-10-28 19:15:00,
2013-10-28 15:16:00,66.9,48.7,30.18,SE,124,0.0,1.0,52,0.00,,---,0.00,VWS V14.01,2013-10-28 19:16:00,
2013-10-28 15:20:00,67.2,49.5,30.18,SE,146,0.0,1.0,53,0.00,,---,0.00,VWS V14.01,2013-10-28 19:20:00,
2013-10-28 15:21:00,67.2,50.5,30.18,SSE,147,0.0,0.0,55,0.00,,---,0.00,VWS V14.01,2013-10-28 19:21:00,
2013-10-28 15:25:00,67.2,50.5,30.18,SE,146,0.0,0.0,55,0.00,,---,0.00,VWS V14.01,2013-10-28 19:25:00,
2013-10-28 15:26:00,67.2,50.5,30.18,SSE,148,2.0,2.0,55,0.00,,---,0.00,VWS V14.01,2013-10-28 19:26:00,
2013-10-28 15:30:00,67.1,49.9,30.18,SSE,150,2.0,2.0,54,0.00,,---,0.00,VWS V14.01,2013-10-28 19:30:00,
2013-10-28 15:31:00,67.1,50.4,30.18,SSE,150,1.0,2.0,55,0.00,,---,0.00,VWS V14.01,2013-10-28 19:31:00,
2013-10-28 15:35:00,67.0,49.8,30.18,SSE,165,2.0,2.0,54,0.00,,---,0.00,VWS V14.01,2013-10-28 19:35:00,
2013-10-28 15:36:00,67.0,50.3,30.18,SSE,165,1.0,2.0,55,0.00,,---,0.00,VWS V14.01,2013-10-28 19:36:00,
2013-10-28 15:40:00,67.1,50.9,30.18,SSE,166,2.0,3.0,56,0.00,,---,0.00,VWS V14.01,2013-10-28 19:40:00,
2013-10-28 15:41:00,67.1,50.9,30.18,SSE,166,2.0,2.0,56,0.00,,---,0.00,VWS V14.01,2013-10-28 19:41:00,
2013-10-28 15:45:00,67.0,50.3,30.18,South,169,2.0,4.0,55,0.00,,---,0.00,VWS V14.01,2013-10-28 19:45:00,
2013-10-28 15:46:00,67.0,50.3,30.18,South,171,3.0,3.0,55,0.00,,---,0.00,VWS V14.01,2013-10-28 19:46:00,
2013-10-28 15:50:00,67.0,50.8,30.18,South,173,2.0,3.0,56,0.00,,---,0.00,VWS V14.01,2013-10-28 19:50:00,
2013-10-28 15:51:00,67.1,51.4,30.18,South,174,2.0,3.0,57,0.00,,---,0.00,VWS V14.01,2013-10-28 19:51:00,
2013-10-28 15:55:00,67.0,51.3,30.18,South,173,0.0,3.0,57,0.00,,---,0.00,VWS V14.01,2013-10-28 19:55:00,
2013-10-28 15:56:00,67.1,51.8,30.18,South,173,0.0,1.0,58,0.00,,---,0.00,VWS V14.01,2013-10-28 19:56:00,
2013-10-28 16:00:00,67.0,51.3,30.18,SSE,168,2.0,2.0,57,0.00,,---,0.00,VWS V14.01,2013-10-28 20:00:00,
2013-10-28 16:01:00,66.9,51.2,30.18,SSE,168,1.0,2.0,57,0.00,,---,0.00,VWS V14.01,2013-10-28 20:01:00,
2013-10-28 16:05:00,66.9,51.2,30.18,SSE,167,0.0,2.0,57,0.00,,---,0.00,VWS V14.01,2013-10-28 20:05:00,
2013-10-28 16:06:00,66.9,52.1,30.18,SSE,167,1.0,2.0,59,0.00,,---,0.00,VWS V14.01,2013-10-28 20:06:00,
2013-10-28 16:10:00,66.8,52.0,30.18,SSE,160,2.0,2.0,59,0.00,,---,0.00,VWS V14.01,2013-10-28 20:10:00,
2013-10-28 16:11:00,66.8,52.0,30.18,SSE,159,1.0,2.0,59,0.00,,---,0.00,VWS V14.01,2013-10-28 20:11:00,
2013-10-28 16:15:00,66.8,52.0,30.18,SSE,159,1.0,2.0,59,0.00,,---,0.00,VWS V14.01,2013-10-28 20:15:00,
2013-10-28 16:16:00,66.8,52.0,30.18,SSE,159,1.0,2.0,59,0.00,,---,0.00,VWS V14.01,2013-10-28 20:16:00,
2013-10-28 16:20:00,66.7,51.5,30.18,SSE,159,2.0,3.0,58,0.00,,---,0.00,VWS V14.01,2013-10-28 20:20:00,
2013-10-28 16:21:00,66.7,51.9,30.18,SSE,167,2.0,2.0,59,0.00,,---,0.00,VWS V14.01,2013-10-28 20:21:00,
2013-10-28 16:25:00,66.6,50.9,30.18,SSE,162,3.0,3.0,57,0.00,,---,0.00,VWS V14.01,2013-10-28 20:25:00,
2013-10-28 16:26:00,66.6,50.9,30.18,SSE,162,3.0,3.0,57,0.00,,---,0.00,VWS V14.01,2013-10-28 20:26:00,
2013-10-28 16:30:00,66.6,51.4,30.18,SSE,159,1.0,3.0,58,0.00,,---,0.00,VWS V14.01,2013-10-28 20:30:00,
2013-10-28 16:31:00,66.6,50.9,30.18,SSE,159,1.0,2.0,57,0.00,,---,0.00,VWS V14.01,2013-10-28 20:31:00,
2013-10-28 16:35:00,66.6,51.4,30.18,SSE,151,1.0,3.0,58,0.00,,---,0.00,VWS V14.01,2013-10-28 20:35:00,
2013-10-28 16:36:00,66.6,51.4,30.18,SSE,151,2.0,2.0,58,0.00,,---,0.00,VWS V14.01,2013-10-28 20:36:00,
2013-10-28 16:40:00,66.6,51.4,30.18,SE,140,1.0,2.0,58,0.00,,---,0.00,VWS V14.01,2013-10-28 20:40:00,
2013-10-28 16:41:00,66.7,51.0,30.18,SE,140,2.0,2.0,57,0.00,,---,0.00,VWS V14.01,2013-10-28 20:41:00,
2013-10-28 16:45:00,66.7,51.9,30.18,SE,136,2.0,3.0,59,0.00,,---,0.00,VWS V14.01,2013-10-28 20:45:00,
2013-10-28 16:46:00,66.6,51.8,30.18,SE,135,3.0,3.0,59,0.00,,---,0.00,VWS V14.01,2013-10-28 20:46:00,
2013-10-28 16:50:00,66.6,51.4,30.18,SE,132,2.0,3.0,58,0.00,,---,0.00,VWS V14.01,2013-10-28 20:50:00,
2013-10-28 16:51:00,66.7,52.4,30.17,SE,132,3.0,3.0,60,0.00,,---,0.00,VWS V14.01,2013-10-28 20:51:00,
2013-10-28 16:55:00,66.6,51.4,30.17,SE,131,1.0,3.0,58,0.00,,---,0.00,VWS V14.01,2013-10-28 20:55:00,
2013-10-28 16:56:00,66.6,50.9,30.17,SE,131,1.0,1.0,57,0.00,,---,0.00,VWS V14.01,2013-10-28 20:56:00,
2013-10-28 17:00:00,66.7,52.4,30.18,SE,131,0.0,2.0,60,0.00,,---,0.00,VWS V14.01,2013-10-28 21:00:00,
2013-10-28 17:01:00,66.7,51.9,30.17,SE,132,0.0,0.0,59,0.00,,---,0.00,VWS V14.01,2013-10-28 21:01:00,
2013-10-28 17:05:00,66.8,51.1,30.18,SE,143,0.0,0.0,57,0.00,,---,0.00,VWS V14.01,2013-10-28 21:05:00,
2013-10-28 17:06:00,66.8,51.1,30.18,SSE,147,0.0,0.0,57,0.00,,---,0.00,VWS V14.01,2013-10-28 21:06:00,
2013-10-28 17:10:00,67.1,51.8,30.18,SSE,149,0.0,0.0,58,0.00,,---,0.00,VWS V14.01,2013-10-28 21:10:00,
2013-10-28 17:11:00,67.1,51.4,30.18,SSE,149,0.0,0.0,57,0.00,,---,0.00,VWS V14.01,2013-10-28 21:11:00,
2013-10-28 17:15:00,67.4,51.7,30.18,SSE,150,0.0,0.0,57,0.00,,---,0.00,VWS V14.01,2013-10-28 21:15:00,
2013-10-28 17:16:00,67.4,51.7,30.18,SSE,150,0.0,0.0,57,0.00,,---,0.00,VWS V14.01,2013-10-28 21:16:00,
2013-10-28 17:20:00,67.4,51.2,30.18,SSE,150,0.0,0.0,56,0.00,,---,0.00,VWS V14.01,2013-10-28 21:20:00,
2013-10-28 17:21:00,67.5,51.3,30.18,SSE,150,0.0,0.0,56,0.00,,---,0.00,VWS V14.01,2013-10-28 21:21:00,
2013-10-28 17:25:00,67.5,50.8,30.18,SSE,153,0.0,0.0,55,0.00,,---,0.00,VWS V14.01,2013-10-28 21:25:00,
2013-10-28 17:26:00,67.5,51.3,30.18,SSE,153,0.0,0.0,56,0.00,,---,0.00,VWS V14.01,2013-10-28 21:26:00,
2013-10-28 17:30:00,67.3,51.6,30.18,SSE,163,0.0,0.0,57,0.00,,---,0.00,VWS V14.01,2013-10-28 21:30:00,
2013-10-28 17:31:00,67.2,51.9,30.18,SSE,163,0.0,0.0,58,0.00,,---,0.00,VWS V14.01,2013-10-28 21:31:00,
2013-10-28 17:35:00,67.0,50.8,30.18,SSE,165,0.0,0.0,56,0.00,,---,0.00,VWS V14.01,2013-10-28 21:35:00,
2013-10-28 17:36:00,67.0,51.3,30.18,SSE,167,0.0,0.0,57,0.00,,---,0.00,VWS V14.01,2013-10-28 21:36:00,
2013-10-28 17:40:00,67.0,51.8,30.18,South,169,0.0,0.0,58,0.00,,---,0.00,VWS V14.01,2013-10-28 21:40:00,
2013-10-28 17:41:00,67.0,51.8,30.18,South,170,0.0,0.0,58,0.00,,---,0.00,VWS V14.01,2013-10-28 21:41:00,
2013-10-28 17:45:00,66.9,51.2,30.18,South,176,0.0,0.0,57,0.00,,---,0.00,VWS V14.01,2013-10-28 21:45:00,
2013-10-28 17:46:00,66.9,50.7,30.18,South,176,0.0,0.0,56,0.00,,---,0.00,VWS V14.01,2013-10-28 21:46:00,
2013-10-28 17:50:00,66.9,51.2,30.18,South,176,0.0,0.0,57,0.00,,---,0.00,VWS V14.01,2013-10-28 21:50:00,
2013-10-28 17:51:00,66.9,51.7,30.18,South,176,0.0,0.0,58,0.00,,---,0.00,VWS V14.01,2013-10-28 21:51:00,
2013-10-28 17:55:00,66.8,52.0,30.18,South,176,0.0,0.0,59,0.00,,---,0.00,VWS V14.01,2013-10-28 21:55:00,
2013-10-28 17:56:00,66.8,51.6,30.18,South,176,0.0,0.0,58,0.00,,---,0.00,VWS V14.01,2013-10-28 21:56:00,
2013-10-28 18:00:00,66.7,51.5,30.18,South,176,0.0,0.0,58,0.00,,---,0.00,VWS V14.01,2013-10-28 22:00:00,
2013-10-28 18:01:00,66.7,51.9,30.18,South,176,0.0,0.0,59,0.00,,---,0.00,VWS V14.01,2013-10-28 22:01:00,
2013-10-28 18:05:00,66.6,50.9,30.18,South,176,0.0,0.0,57,0.00,,---,0.00,VWS V14.01,2013-10-28 22:05:00,
2013-10-28 18:06:00,66.7,51.9,30.18,South,176,0.0,0.0,59,0.00,,---,0.00,VWS V14.01,2013-10-28 22:06:00,
2013-10-28 18:10:00,66.7,51.9,30.18,South,176,0.0,0.0,59,0.00,,---,0.00,VWS V14.01,2013-10-28 22:10:00,
2013-10-28 18:11:00,66.7,52.4,30.18,South,176,0.0,0.0,60,0.00,,---,0.00,VWS V14.01,2013-10-28 22:11:00,
2013-10-28 18:15:00,66.6,52.3,30.18,South,176,0.0,0.0,60,0.00,,---,0.00,VWS V14.01,2013-10-28 22:15:00,
2013-10-28 18:16:00,66.6,52.3,30.19,South,176,0.0,0.0,60,0.00,,---,0.00,VWS V14.01,2013-10-28 22:16:00,
2013-10-28 18:20:00,66.6,52.3,30.19,South,175,0.0,0.0,60,0.00,,---,0.00,VWS V14.01,2013-10-28 22:20:00,
2013-10-28 18:21:00,66.6,52.3,30.19,South,174,0.0,0.0,60,0.00,,---,0.00,VWS V14.01,2013-10-28 22:21:00,
2013-10-28 18:25:00,66.5,52.2,30.19,South,173,0.0,0.0,60,0.00,,---,0.00,VWS V14.01,2013-10-28 22:25:00,
2013-10-28 18:26:00,66.6,52.3,30.19,South,173,0.0,0.0,60,0.00,,---,0.00,VWS V14.01,2013-10-28 22:26:00,
2013-10-28 18:30:00,66.5,54.0,30.19,South,173,0.0,0.0,64,0.00,,---,0.00,VWS V14.01,2013-10-28 22:30:00,
2013-10-28 18:31:00,66.5,54.0,30.19,South,173,0.0,0.0,64,0.00,,---,0.00,VWS V14.01,2013-10-28 22:31:00,
2013-10-28 18:35:00,66.4,53.4,30.19,South,173,0.0,0.0,63,0.00,,---,0.00,VWS V14.01,2013-10-28 22:35:00,
2013-10-28 18:36:00,66.4,53.0,30.19,South,173,0.0,0.0,62,0.00,,---,0.00,VWS V14.01,2013-10-28 22:36:00,
2013-10-28 18:40:00,66.4,52.6,30.19,South,173,0.0,0.0,61,0.00,,---,0.00,VWS V14.01,2013-10-28 22:40:00,
2013-10-28 18:41:00,66.5,52.7,30.19,South,176,0.0,0.0,61,0.00,,---,0.00,VWS V14.01,2013-10-28 22:41:00,
2013-10-28 18:45:00,66.5,53.1,30.19,SSW,195,0.0,0.0,62,0.00,,---,0.00,VWS V14.01,2013-10-28 22:45:00,
2013-10-28 18:46:00,66.5,53.5,30.19,SSW,195,0.0,0.0,63,0.00,,---,0.00,VWS V14.01,2013-10-28 22:46:00,
2013-10-28 18:50:00,66.5,53.5,30.19,SSW,201,0.0,0.0,63,0.00,,---,0.00,VWS V14.01,2013-10-28 22:50:00,
2013-10-28 18:51:00,66.5,53.5,30.19,South,190,0.0,0.0,63,0.00,,---,0.00,VWS V14.01,2013-10-28 22:51:00,
2013-10-28 18:55:00,66.5,53.1,30.20,SSW,192,0.0,2.0,62,0.00,,---,0.00,VWS V14.01,2013-10-28 22:55:00,
2013-10-28 18:56:00,66.5,53.1,30.20,SSW,192,0.0,0.0,62,0.00,,---,0.00,VWS V14.01,2013-10-28 22:56:00,
2013-10-28 19:00:00,66.5,52.7,30.20,SSW,199,0.0,0.0,61,0.00,,---,0.00,VWS V14.01,2013-10-28 23:00:00,
2013-10-28 19:01:00,66.5,53.1,30.20,SSW,199,0.0,0.0,62,0.00,,---,0.00,VWS V14.01,2013-10-28 23:01:00,
2013-10-28 19:05:00,66.5,53.5,30.20,SSW,199,0.0,0.0,63,0.00,,---,0.00,VWS V14.01,2013-10-28 23:05:00,
2013-10-28 19:06:00,66.5,53.5,30.20,SSW,200,0.0,0.0,63,0.00,,---,0.00,VWS V14.01,2013-10-28 23:06:00,
2013-10-28 19:10:00,66.4,53.9,30.20,SW,217,0.0,0.0,64,0.00,,---,0.00,VWS V14.01,2013-10-28 23:10:00,
2013-10-28 19:11:00,66.3,53.8,30.20,SW,217,0.0,0.0,64,0.00,,---,0.00,VWS V14.01,2013-10-28 23:11:00,
2013-10-28 19:15:00,66.1,53.6,30.21,SW,219,0.0,0.0,64,0.00,,---,0.00,VWS V14.01,2013-10-28 23:15:00,
2013-10-28 19:16:00,66.1,53.6,30.21,SW,223,0.0,0.0,64,0.00,,---,0.00,VWS V14.01,2013-10-28 23:16:00,
2013-10-28 19:20:00,65.9,53.4,30.21,SW,224,0.0,0.0,64,0.00,,---,0.00,VWS V14.01,2013-10-28 23:20:00,
2013-10-28 19:21:00,65.8,53.7,30.21,WSW,246,0.0,0.0,65,0.00,,---,0.00,VWS V14.01,2013-10-28 23:21:00,
2013-10-28 19:25:00,65.1,53.1,30.20,WSW,257,0.0,1.0,65,0.00,,---,0.00,VWS V14.01,2013-10-28 23:25:00,
2013-10-28 19:26:00,65.0,53.4,30.20,WSW,257,0.0,0.0,66,0.00,,---,0.00,VWS V14.01,2013-10-28 23:26:00,
2013-10-28 19:30:00,65.0,53.4,30.20,WSW,258,0.0,0.0,66,0.00,,---,0.00,VWS V14.01,2013-10-28 23:30:00,
2013-10-28 19:31:00,64.9,53.3,30.20,WSW,258,0.0,0.0,66,0.00,,---,0.00,VWS V14.01,2013-10-28 23:31:00,
2013-10-28 19:35:00,65.0,53.8,30.20,WSW,258,0.0,0.0,67,0.00,,---,0.00,VWS V14.01,2013-10-28 23:35:00,
2013-10-28 19:36:00,64.9,53.7,30.20,WSW,258,0.0,0.0,67,0.00,,---,0.00,VWS V14.01,2013-10-28 23:36:00,
2013-10-28 19:40:00,64.9,53.7,30.20,WSW,258,0.0,0.0,67,0.00,,---,0.00,VWS V14.01,2013-10-28 23:40:00,
2013-10-28 19:41:00,64.9,53.7,30.20,West,262,0.0,0.0,67,0.00,,---,0.00,VWS V14.01,2013-10-28 23:41:00,
2013-10-28 19:45:00,64.8,53.6,30.20,West,262,0.0,0.0,67,0.00,,---,0.00,VWS V14.01,2013-10-28 23:45:00,
2013-10-28 19:46:00,64.8,53.6,30.20,West,262,0.0,0.0,67,0.00,,---,0.00,VWS V14.01,2013-10-28 23:46:00,
2013-10-28 19:50:00,64.8,53.6,30.20,West,262,0.0,0.0,67,0.00,,---,0.00,VWS V14.01,2013-10-28 23:50:00,
2013-10-28 19:51:00,64.8,53.6,30.20,West,262,0.0,0.0,67,0.00,,---,0.00,VWS V14.01,2013-10-28 23:51:00,
2013-10-28 19:55:00,64.8,53.6,30.20,West,266,0.0,0.0,67,0.00,,---,0.00,VWS V14.01,2013-10-28 23:55:00,
2013-10-28 19:56:00,64.8,53.6,30.21,West,266,0.0,0.0,67,0.00,,---,0.00,VWS V14.01,2013-10-28 23:56:00,
2013-10-28 20:00:00,64.8,53.6,30.21,West,270,0.0,0.0,67,0.00,,---,0.00,VWS V14.01,2013-10-29 00:00:00,
2013-10-28 20:01:00,64.8,53.2,30.21,West,270,0.0,0.0,66,0.00,,---,0.00,VWS V14.01,2013-10-29 00:01:00,
2013-10-28 20:05:00,64.8,53.2,30.21,West,270,0.0,0.0,66,0.00,,---,0.00,VWS V14.01,2013-10-29 00:05:00,
2013-10-28 20:06:00,64.9,53.7,30.21,West,270,0.0,0.0,67,0.00,,---,0.00,VWS V14.01,2013-10-29 00:06:00,
2013-10-28 20:10:00,64.7,53.9,30.21,WNW,282,0.0,0.0,68,0.00,,---,0.00,VWS V14.01,2013-10-29 00:10:00,
2013-10-28 20:11:00,64.6,53.8,30.21,WNW,282,0.0,0.0,68,0.00,,---,0.00,VWS V14.01,2013-10-29 00:11:00,
2013-10-28 20:15:00,64.5,53.7,30.21,WNW,290,0.0,0.0,68,0.00,,---,0.00,VWS V14.01,2013-10-29 00:15:00,
2013-10-28 20:16:00,64.5,53.7,30.21,WNW,291,0.0,0.0,68,0.00,,---,0.00,VWS V14.01,2013-10-29 00:16:00,
2013-10-28 20:20:00,64.4,53.6,30.21,WNW,291,0.0,0.0,68,0.00,,---,0.00,VWS V14.01,2013-10-29 00:20:00,
2013-10-28 20:21:00,64.5,53.7,30.21,WNW,291,0.0,0.0,68,0.00,,---,0.00,VWS V14.01,2013-10-29 00:21:00,
2013-10-28 20:25:00,64.5,53.3,30.21,WNW,291,0.0,0.0,67,0.00,,---,0.00,VWS V14.01,2013-10-29 00:25:00,
2013-10-28 20:26:00,64.5,53.3,30.21,WNW,291,0.0,0.0,67,0.00,,---,0.00,VWS V14.01,2013-10-29 00:26:00,
2013-10-28 20:30:00,64.6,53.0,30.21,WNW,294,0.0,0.0,66,0.00,,---,0.00,VWS V14.01,2013-10-29 00:30:00,
2013-10-28 20:31:00,64.6,53.0,30.21,WNW,295,0.0,0.0,66,0.00,,---,0.00,VWS V14.01,2013-10-29 00:31:00,
2013-10-28 20:35:00,64.8,52.8,30.21,WNW,295,0.0,0.0,65,0.00,,---,0.00,VWS V14.01,2013-10-29 00:35:00,
2013-10-28 20:36:00,64.9,52.9,30.21,WNW,300,0.0,0.0,65,0.00,,---,0.00,VWS V14.01,2013-10-29 00:36:00,
2013-10-28 20:40:00,65.0,52.5,30.21,WNW,300,0.0,0.0,64,0.00,,---,0.00,VWS V14.01,2013-10-29 00:40:00,
2013-10-28 20:41:00,65.1,52.6,30.21,WNW,300,0.0,0.0,64,0.00,,---,0.00,VWS V14.01,2013-10-29 00:41:00,
2013-10-28 20:45:00,65.1,52.6,30.21,WNW,300,0.0,0.0,64,0.00,,---,0.00,VWS V14.01,2013-10-29 00:45:00,
2013-10-28 20:46:00,65.2,52.7,30.21,WNW,300,0.0,0.0,64,0.00,,---,0.00,VWS V14.01,2013-10-29 00:46:00,
2013-10-28 20:50:00,65.1,52.6,30.21,WNW,300,0.0,0.0,64,0.00,,---,0.00,VWS V14.01,2013-10-29 00:50:00,
2013-10-28 20:51:00,65.1,52.6,30.21,WNW,300,0.0,0.0,64,0.00,,---,0.00,VWS V14.01,2013-10-29 00:51:00,
2013-10-28 20:55:00,65.0,52.5,30.21,WNW,300,0.0,0.0,64,0.00,,---,0.00,VWS V14.01,2013-10-29 00:55:00,
2013-10-28 20:56:00,65.0,52.5,30.21,WNW,300,0.0,0.0,64,0.00,,---,0.00,VWS V14.01,2013-10-29 00:56:00,
2013-10-28 21:00:00,64.7,53.1,30.21,WNW,300,0.0,0.0,66,0.00,,---,0.00,VWS V14.01,2013-10-29 01:00:00,
2013-10-28 21:01:00,64.6,53.0,30.21,NNW,329,0.0,0.0,66,0.00,,---,0.00,VWS V14.01,2013-10-29 01:01:00,
2013-10-28 21:05:00,64.0,53.6,30.21,North,355,0.0,0.0,69,0.00,,---,0.00,VWS V14.01,2013-10-29 01:05:00,
2013-10-28 21:06:00,63.8,53.0,30.21,North,355,0.0,0.0,68,0.00,,---,0.00,VWS V14.01,2013-10-29 01:06:00,
2013-10-28 21:10:00,63.7,53.0,30.21,North,355,0.0,0.0,68,0.00,,---,0.00,VWS V14.01,2013-10-29 01:10:00,
2013-10-28 21:11:00,63.8,53.0,30.21,North,355,0.0,0.0,68,0.00,,---,0.00,VWS V14.01,2013-10-29 01:11:00,
2013-10-28 21:15:00,64.1,52.9,30.22,North,355,0.0,0.0,67,0.00,,---,0.00,VWS V14.01,2013-10-29 01:15:00,
2013-10-28 21:16:00,64.2,53.0,30.22,North,355,0.0,0.0,67,0.00,,---,0.00,VWS V14.01,2013-10-29 01:16:00,
2013-10-28 21:20:00,64.4,52.8,30.22,North,355,0.0,0.0,66,0.00,,---,0.00,VWS V14.01,2013-10-29 01:20:00,
2013-10-28 21:21:00,64.5,52.9,30.22,North,355,0.0,0.0,66,0.00,,---,0.00,VWS V14.01,2013-10-29 01:21:00,
2013-10-28 21:25:00,64.7,52.7,30.22,North,355,0.0,0.0,65,0.00,,---,0.00,VWS V14.01,2013-10-29 01:25:00,
2013-10-28 21:26:00,64.7,52.7,30.22,North,355,0.0,0.0,65,0.00,,---,0.00,VWS V14.01,2013-10-29 01:26:00,
2013-10-28 21:30:00,64.6,53.0,30.22,North,355,0.0,0.0,66,0.00,,---,0.00,VWS V14.01,2013-10-29 01:30:00,
2013-10-28 21:31:00,64.5,53.3,30.22,North,355,0.0,0.0,67,0.00,,---,0.00,VWS V14.01,2013-10-29 01:31:00,
2013-10-28 21:35:00,64.2,52.6,30.22,North,355,0.0,0.0,66,0.00,,---,0.00,VWS V14.01,2013-10-29 01:35:00,
2013-10-28 21:36:00,64.2,53.0,30.22,North,355,0.0,0.0,67,0.00,,---,0.00,VWS V14.01,2013-10-29 01:36:00,
2013-10-28 21:40:00,64.1,52.9,30.22,North,360,0.0,0.0,67,0.00,,---,0.00,VWS V14.01,2013-10-29 01:40:00,
2013-10-28 21:41:00,64.0,52.8,30.22,North,360,0.0,0.0,67,0.00,,---,0.00,VWS V14.01,2013-10-29 01:41:00,
2013-10-28 21:45:00,64.0,52.8,30.22,North,360,0.0,0.0,67,0.00,,---,0.00,VWS V14.01,2013-10-29 01:45:00,
2013-10-28 21:46:00,64.0,52.8,30.22,North,360,0.0,0.0,67,0.00,,---,0.00,VWS V14.01,2013-10-29 01:46:00,
2013-10-28 21:50:00,64.3,52.7,30.22,North,360,0.0,0.0,66,0.00,,---,0.00,VWS V14.01,2013-10-29 01:50:00,
2013-10-28 21:51:00,64.3,52.7,30.22,North,360,0.0,0.0,66,0.00,,---,0.00,VWS V14.01,2013-10-29 01:51:00,
2013-10-28 21:55:00,64.5,52.5,30.22,North,360,0.0,0.0,65,0.00,,---,0.00,VWS V14.01,2013-10-29 01:55:00,
2013-10-28 21:56:00,64.6,52.6,30.23,North,360,0.0,0.0,65,0.00,,---,0.00,VWS V14.01,2013-10-29 01:56:00,
2013-10-28 22:00:00,64.7,52.3,30.22,North,360,0.0,0.0,64,0.00,,---,0.00,VWS V14.01,2013-10-29 02:00:00,
2013-10-28 22:01:00,64.7,52.3,30.22,North,360,0.0,0.0,64,0.00,,---,0.00,VWS V14.01,2013-10-29 02:01:00,
2013-10-28 22:05:00,64.8,52.3,30.23,North,360,0.0,0.0,64,0.00,,---,0.00,VWS V14.01,2013-10-29 02:05:00,
2013-10-28 22:06:00,64.9,52.5,30.23,North,360,0.0,0.0,64,0.00,,---,0.00,VWS V14.01,2013-10-29 02:06:00,
2013-10-28 22:10:00,64.9,52.0,30.22,North,360,0.0,0.0,63,0.00,,---,0.00,VWS V14.01,2013-10-29 02:10:00,
2013-10-28 22:11:00,64.9,52.0,30.22,North,360,0.0,0.0,63,0.00,,---,0.00,VWS V14.01,2013-10-29 02:11:00,
2013-10-28 22:15:00,64.9,52.0,30.22,North,360,0.0,0.0,63,0.00,,---,0.00,VWS V14.01,2013-10-29 02:15:00,
2013-10-28 22:16:00,64.9,52.0,30.22,North,360,0.0,0.0,63,0.00,,---,0.00,VWS V14.01,2013-10-29 02:16:00,
2013-10-28 22:20:00,64.9,52.0,30.22,North,360,0.0,0.0,63,0.00,,---,0.00,VWS V14.01,2013-10-29 02:20:00,
2013-10-28 22:21:00,65.0,51.7,30.22,North,360,0.0,0.0,62,0.00,,---,0.00,VWS V14.01,2013-10-29 02:21:00,
2013-10-28 22:25:00,65.0,51.7,30.22,North,360,0.0,0.0,62,0.00,,---,0.00,VWS V14.01,2013-10-29 02:25:00,
2013-10-28 22:26:00,65.0,51.7,30.22,North,360,0.0,0.0,62,0.00,,---,0.00,VWS V14.01,2013-10-29 02:26:00,
2013-10-28 22:30:00,65.0,51.7,30.22,North,360,0.0,0.0,62,0.00,,---,0.00,VWS V14.01,2013-10-29 02:30:00,
2013-10-28 22:31:00,65.1,51.8,30.22,North,360,0.0,0.0,62,0.00,,---,0.00,VWS V14.01,2013-10-29 02:31:00,
2013-10-28 22:35:00,65.2,51.9,30.23,North,360,0.0,0.0,62,0.00,,---,0.00,VWS V14.01,2013-10-29 02:35:00,
2013-10-28 22:36:00,65.2,51.9,30.23,North,360,0.0,0.0,62,0.00,,---,0.00,VWS V14.01,2013-10-29 02:36:00,
2013-10-28 22:40:00,65.1,51.8,30.23,North,360,3.0,3.0,62,0.00,,---,0.00,VWS V14.01,2013-10-29 02:40:00,
2013-10-28 22:41:00,64.9,52.0,30.22,North,360,2.0,3.0,63,0.00,,---,0.00,VWS V14.01,2013-10-29 02:41:00,
2013-10-28 22:45:00,64.0,53.2,30.22,North,5,3.0,4.0,68,0.00,,---,0.00,VWS V14.01,2013-10-29 02:45:00,
2013-10-28 22:46:00,63.8,53.5,30.23,North,11,3.0,4.0,69,0.00,,---,0.00,VWS V14.01,2013-10-29 02:46:00,
2013-10-28 22:50:00,62.9,52.6,30.22,NNE,14,2.0,4.0,69,0.00,,---,0.00,VWS V14.01,2013-10-29 02:50:00,
2013-10-28 22:51:00,62.9,52.6,30.22,NNE,14,1.0,3.0,69,0.00,,---,0.00,VWS V14.01,2013-10-29 02:51:00,
2013-10-28 22:55:00,63.5,52.4,30.23,NNE,14,2.0,4.0,67,0.00,,---,0.00,VWS V14.01,2013-10-29 02:55:00,
2013-10-28 22:56:00,63.6,52.9,30.23,NNE,14,4.0,4.0,68,0.00,,---,0.00,VWS V14.01,2013-10-29 02:56:00,
2013-10-28 23:00:00,63.5,52.4,30.23,NNE,14,2.0,4.0,67,0.00,,---,0.00,VWS V14.01,2013-10-29 03:00:00,
2013-10-28 23:01:00,63.7,52.5,30.23,NNE,14,1.0,2.0,67,0.00,,---,0.00,VWS V14.01,2013-10-29 03:01:00,
2013-10-28 23:05:00,64.1,52.5,30.23,NNE,14,0.0,2.0,66,0.00,,---,0.00,VWS V14.01,2013-10-29 03:05:00,
2013-10-28 23:06:00,64.1,52.5,30.23,NNE,14,0.0,0.0,66,0.00,,---,0.00,VWS V14.01,2013-10-29 03:06:00,
2013-10-28 23:10:00,64.4,52.4,30.23,NNE,14,0.0,0.0,65,0.00,,---,0.00,VWS V14.01,2013-10-29 03:10:00,
2013-10-28 23:11:00,64.4,52.4,30.23,NNE,14,0.0,0.0,65,0.00,,---,0.00,VWS V14.01,2013-10-29 03:11:00,
2013-10-28 23:15:00,64.6,52.2,30.23,NNE,16,0.0,0.0,64,0.00,,---,0.00,VWS V14.01,2013-10-29 03:15:00,
2013-10-28 23:16:00,64.6,52.2,30.22,NNE,22,0.0,0.0,64,0.00,,---,0.00,VWS V14.01,2013-10-29 03:16:00,
2013-10-28 23:20:00,64.3,51.9,30.22,NNE,26,0.0,0.0,64,0.00,,---,0.00,VWS V14.01,2013-10-29 03:20:00,
2013-10-28 23:21:00,64.3,51.9,30.22,NNE,30,0.0,0.0,64,0.00,,---,0.00,VWS V14.01,2013-10-29 03:21:00,
2013-10-28 23:25:00,64.4,52.0,30.22,NNE,30,0.0,0.0,64,0.00,,---,0.00,VWS V14.01,2013-10-29 03:25:00,
2013-10-28 23:26:00,64.4,52.0,30.22,NNE,30,0.0,0.0,64,0.00,,---,0.00,VWS V14.01,2013-10-29 03:26:00,
2013-10-28 23:30:00,64.5,52.1,30.22,NNE,30,0.0,0.0,64,0.00,,---,0.00,VWS V14.01,2013-10-29 03:30:00,
2013-10-28 23:31:00,64.5,52.5,30.22,NNE,30,0.0,0.0,65,0.00,,---,0.00,VWS V14.01,2013-10-29 03:31:00,
2013-10-28 23:35:00,64.1,52.1,30.22,NNE,30,0.0,0.0,65,0.00,,---,0.00,VWS V14.01,2013-10-29 03:35:00,
2013-10-28 23:36:00,64.0,52.0,30.22,NNE,30,0.0,0.0,65,0.00,,---,0.00,VWS V14.01,2013-10-29 03:36:00,
2013-10-28 23:40:00,64.0,51.6,30.22,NNE,30,0.0,0.0,64,0.00,,---,0.00,VWS V14.01,2013-10-29 03:40:00,
2013-10-28 23:41:00,64.1,51.7,30.22,NNE,30,0.0,0.0,64,0.00,,---,0.00,VWS V14.01,2013-10-29 03:41:00,
2013-10-28 23:45:00,63.7,51.7,30.22,NNE,30,0.0,0.0,65,0.00,,---,0.00,VWS V14.01,2013-10-29 03:45:00,
2013-10-28 23:46:00,63.7,51.7,30.22,NNE,30,0.0,0.0,65,0.00,,---,0.00,VWS V14.01,2013-10-29 03:46:00,
2013-10-28 23:50:00,63.5,52.0,30.22,NNE,32,0.0,0.0,66,0.00,,---,0.00,VWS V14.01,2013-10-29 03:50:00,
2013-10-28 23:51:00,63.4,51.9,30.22,NNE,32,0.0,0.0,66,0.00,,---,0.00,VWS V14.01,2013-10-29 03:51:00,
2013-10-28 23:55:00,63.2,51.7,30.22,NNE,32,0.0,0.0,66,0.00,,---,0.00,VWS V14.01,2013-10-29 03:55:00,
2013-10-28 23:56:00,63.2,51.7,30.22,NNE,32,0.0,0.0,66,0.00,,---,0.00,VWS V14.01,2013-10-29 03:56:00,